Погода в Хордогое

Россия / Республика Саха (Якутия)     62°36′20″N   115°40′45″E
темп.,
°C
ветер,
м/с
пор.,
м/с
влажн.,
%
обл.,
%
осадки,
мм/ч
давл.,
гПа
погр.,
м
31 июля, сб
сб3100:00+14в11518 0.0 101613
03:00+12всв115956 0.0 101710
06:00+12всв11635 0.0 101810
09:00+20всв23405 0.0 1018369
12:00+25в23265 0.0 10181656
15:00+27вюв23225 0.0 10172027
18:00+27вюв23241 0.0 10161984
21:00+21вюв11485 0.0 101711
1 августа, вс
вс100:00+16юв115618 0.0 101811
03:00+14з01595 0.0 101811
06:00+14ссз11632 0.0 101810
09:00+22св12421 0.0 1018348
12:00+27всв23280 0.0 10161591
15:00+29всв3523100 0.0 10132163
18:00+28всв3627100 0.0 10122142
21:00+22св2647100 0.0 101298
2 августа, пн
пн200:00+19св2953100 0.0 1011150
03:00+16св2461100 0.0 101080
06:00+17ссв21061100 0.0 1009237
09:00+22св41148100 0.0 1007455
12:00+26всв5938100 0.0 1005971
15:00+26юв3742100 0.0 10041548
18:00+23ююв5652100 0.0 1005637
21:00+17ююв2879100 0.0 1007415
3 августа, вт
вт300:00+15сз1195100 0.8 100637
03:00+15св1395100 0.8 100677
06:00+15в2795100 0.0 1006278
09:00+15всв279286 0.0 1007330
12:00+21вюв4765100 0.1 10061193
15:00+23в4655100 0.6 10051604
18:00+24всв464390 0.0 10051891
21:00+20всв2563100 0.0 100597
4 августа, ср
ср400:00+16св237384 0.0 100662
03:00+15св2778100 0.0 1006126
06:00+15св248012 0.0 100695
09:00+22всв37525 0.0 1005562
12:00+26всв453955 0.0 10051793
15:00+28всв4534100 0.0 10032381
18:00+28всв4535100 0.0 10032372
21:00+22св265666 0.0 100499